SCP
1 1 1 1 1 2 2 2 2 3 3 3 3 2 2 1 1 1 1 1 1 1 1 1 2 2 2 2 1 1 1 1 1 1 1 1 2 2 2 1 1 1 1
1 1 1 1 1 2 2 2 2 2 2 2 2 2 2 1 1 1 1 1 1 1 1 1 1 2 2 1 1 1 1 1 1 1 1 2 2 2 2 1 1 1 1
2 2 2 2 1 1 1 1 1 2 2 2 1 1 1 2 1 1 1 1 1 1 1 1 1 1 1 1 1 1 1 1 1 1 1 2 2 2 1 1 1 1 1
2 3 3 2 2 1 1 1 1 2 2 2 1 1 1 2 2 2 1 1 1 1 1 1 1 1 1 1 1 1 1 1 1 1 1 1 1 1 1 1 1 1 1
3 3 3 3 2 2 2 2 2 3 3 2 2 2 2 1 1 2 1 1 1 1 1 1 1 1 1 1 1 1 1 1 1 1 1 1 1 1 1 1 1 1 1
3 2 2 2 2 2 2 2 3 3 3 3 3 3 2 1 1 1 1 1 1 1 1 1 1 0 0 0 0 0 1 1 1 1 1 1 1 1 1 1 1 1 1
2 2 2 1 1 1 2 2 2 2 3 3 3 3 2 1 0 0 1 1 1 1 1 1 1 1 0 0 0 0 0 0 0 1 1 1 1 1 1 1 1 1 1
1 1 1 1 1 1 1 2 2 2 2 2 2 2 2 1 0 0 0 1 1 1 1 1 1 1 1 1 0 0 0 0 0 0 0 0 0 1 1 0 0 0 0
2 2 2 2 2 2 2 2 2 2 2 2 2 2 2 1 0 0 0 1 1 1 1 1 1 0 0 0 0 0 0 0 0 0 0 0 0 0 0 0 0 0 0
2 2 2 2 2 2 2 2 2 2 2 2 2 2 2 1 1 0 0 1 1 1 1 1 0 0 0 0 0 0 0 0 0 0 0 0 0 0 0 0 0 0 0
2 3 3 3 2 2 2 2 2 2 2 1 1 1 1 1 0 0 0 0 1 1 1 0 0 0 0 0 0 0 0 0 0 0 0 0 0 0 0 0 0 0 0
3 3 3 3 3 3 3 3 3 2 1 1 1 1 1 0 0 0 0 0 0 0 0 0 0 0 0 0 0 0 0 0 0 0 0 0 0 0 0 0 0 0 0
4 3 3 3 3 3 3 3 2 2 1 0 0 0 0 0 0 0 0 0 0 0 0 0 0 0 0 0 0 0 0 0 0 0 0 0 0 0 0 0 0 0 0
5 4 3 3 3 2 2 1 1 1 1 0 0 0 0 0 0 0 0 0 0 0 0 0 0 0 0 0 0 0 0 0 0 0 0 0 0 0 0 0 0 0 0
4 3 2 2 1 1 0 0 0 0 0 0 0 0 0 0 0 0 0 0 0 0 0 0 0 0 0 0 0 0 0 0 0 0 0 0 0 0 0 0 0 0 0
3 2 1 1 0 0 0 0 0 0 0 0 0 0 0 0 0 0 0 0 0 0 0 0 0 0 0 0 0 0 0 0 0 0 0 0 0 0 0 0 0 0 0
1 1 0 0 0 0 0 0 0 0 0 0 0 0 0 0 0 0 0 0 0 0 0 0 0 0 0 0 0 0 0 0 0 0 0 0 0 0 0 0 0 0 0
0 0 0 0 0 0 0 0 0 0 0 0 0 0 0 0 0 0 0 0 0 0 0 0 0 0 0 0 0 0 0 0 0 0 0 0 0 0 0 0 0 0 0
0 0 0 0 0 0 0 0 0 0 0 0 0 0 0 0 0 0 0 0 0 0 0 0 0 0 0 0 0 0 0 0 0 0 0 0 0 0 0 0 0 0 0
0 0 0 0 0 0 0 0 0 0 0 0 0 0 0 0 0 0 0 0 0 0 0 0 0 0 0 0 0 0 0 0 0 0 0 0 0 0 0 0 0 0 0
0 0 0 0 0 0 0 0 0 0 0 0 0 0 0 0 0 0 0 0 0 0 0 0 0 0 0 0 0 0 0 0 0 0 0 0 0 0 0 0 0 0 0
0 0 0 0 0 0 0 0 0 0 0 0 0 0 0 0 0 0 0 0 0 0 0 0 0 0 0 0 0 0 0 0 0 0 0 0 0 0 0 0 0 0 0
0 0 0 0 0 0 0 0 0 0 0 0 0 0 0 0 0 0 0 0 0 0 0 0 0 0 0 0 0 0 0 0 0 0 0 0 0 0 0 0 0 0 0
0 0 0 0 0 0 0 0 0 0 0 0 0 0 0 0 0 0 0 0 0 0 0 0 0 0 0 0 0 0 0 0 0 0 0 0 0 0 0 0 0 0 0
0 0 0 0 0 0 0 0 0 0 0 0 0 0 0 0 0 0 0 0 0 0 0 0 0 0 0 0 0 0 0 0 0 0 0 0 0 0 0 0 0 0 0
0 0 0 0 0 0 0 0 0 0 0 0 0 0 0 0 0 0 0 0 0 0 0 0 0 0 0 0 0 0 0 0 0 0 0 0 0 0 0 0 0 0 0
Wind_Speed
8 8 8 8 8 8 7 8 7 6 7 8 8 8 8 8 8 7 7 6 7 6 5 5 5 4 4 4 4 4 4 5 5 4 2 0 1 4 2 3 3 3 3
8 8 8 8 8 8 7 7 6 6 7 7 7 8 8 8 8 8 7 7 6 6 5 5 5 4 4 4 3 4 4 4 6 5 3 2 1 2 2 3 3 3 1
7 7 7 7 8 7 6 6 6 6 6 6 7 7 7 6 6 6 5 5 5 4 4 4 3 3 3 3 3 3 3 4 3 4 4 2 2 2 3 3 3 3 4
7 7 7 7 7 6 6 6 5 5 6 5 5 5 5 5 5 5 4 4 3 3 2 1 1 1 1 2 2 3 3 3 2 3 3 2 2 2 3 3 3 2 3
6 6 6 6 6 5 5 5 5 5 5 5 5 5 5 4 4 5 4 4 4 3 3 3 4 7 9 5 3 2 2 2 2 2 2 2 2 3 3 4 4 4 3
6 6 6 6 6 6 5 5 5 5 5 5 5 5 4 3 6 7 5 5 5 5 5 5 6 7 10 11 13 12 10 4 3 2 2 3 4 4 4 5 4 4 3
6 6 6 6 6 6 6 6 6 6 6 6 6 6 6 7 9 10 8 6 7 6 5 5 5 6 6 7 9 10 12 12 9 5 5 5 4 5 6 5 5 5 5
7 6 7 7 7 7 7 7 7 6 7 7 8 7 7 8 10 11 11 9 8 8 7 6 7 6 6 5 7 8 9 10 9 7 7 7 7 6 6 5 4 4 3
7 6 7 7 8 8 8 8 7 8 8 8 7 8 8 8 9 9 9 8 8 9 8 8 7 8 8 6 7 7 7 7 11 12 10 7 7 8 8 6 5 5 5
7 7 7 7 8 9 9 9 8 9 9 9 9 8 8 8 9 9 7 7 9 8 8 9 13 11 10 8 6 6 6 6 5 5 4 3 3 4 4 6 6 6 6
8 8 9 8 9 9 10 9 9 10 10 10 10 9 9 9 10 9 7 6 7 8 7 8 9 12 12 11 9 8 5 3 2 2 3 3 3 3 5 6 6 7 7
9 10 10 9 9 9 10 10 10 11 11 10 10 10 8 8 9 10 11 10 8 9 8 8 9 11 12 11 8 6 3 3 2 3 3 4 5 5 5 6 5 5 5
10 10 10 10 9 9 10 10 9 8 8 8 8 9 8 8 9 13 13 13 12 10 10 12 10 9 9 9 7 3 2 3 4 4 4 5 5 5 5 4 4 4 6
11 10 10 10 10 9 7 7 7 7 7 8 8 9 9 8 7 8 9 10 12 11 10 10 8 6 5 5 3 2 4 6 5 5 5 4 4 4 4 5 6 6 6
12 11 11 10 10 10 10 9 8 8 6 6 7 7 8 8 7 7 6 7 6 7 6 6 5 5 4 5 4 4 4 4 4 5 5 5 5 5 5 5 6 7 7
12 11 9 9 9 10 11 12 18 14 17 16 13 10 11 12 12 12 12 11 7 2 2 5 5 4 4 4 4 4 4 5 5 5 5 6 6 6 6 6 6 7 7
11 11 9 9 9 10 10 11 11 13 18 18 16 15 14 13 12 11 10 7 2 2 3 5 5 4 4 4 4 4 5 5 5 5 5 5 6 6 6 6 6 7 8
12 12 10 8 9 9 9 10 10 11 11 10 11 13 12 11 10 7 6 5 4 3 5 5 4 4 4 4 4 5 5 4 5 5 5 6 6 6 7 7 7 8 9
11 9 9 8 8 8 9 9 10 11 10 10 10 9 8 9 7 3 3 2 5 5 5 4 4 4 4 4 4 4 4 5 6 6 5 6 6 7 7 8 8 7 8
10 12 10 9 9 9 9 9 9 9 9 9 8 8 8 7 6 5 3 4 4 4 4 4 4 4 4 4 4 4 4 4 5 5 6 6 6 7 7 8 8 8 8
9 10 11 9 9 9 8 8 8 8 8 7 7 6 3 4 5 5 4 4 4 4 4 3 3 3 3 3 4 4 5 5 5 6 6 6 7 7 7 7 8 8 8
9 8 8 9 8 8 8 7 7 7 8 8 8 7 0 2 4 4 4 4 4 3 3 2 3 4 4 4 4 5 5 5 6 6 7 7 7 7 7 8 8 9 9
9 9 9 8 8 8 7 7 7 7 7 7 7 6 4 4 4 4 4 3 3 3 3 2 3 3 4 3 3 4 5 6 7 7 8 8 8 8 8 8 10 10 10
9 9 9 9 8 7 7 7 7 7 7 6 6 5 4 4 3 4 3 3 2 2 2 2 2 3 4 3 3 3 5 6 8 7 9 9 9 8 8 8 9 10 10
8 8 8 8 7 7 6 6 6 6 6 5 5 4 4 3 3 3 2 2 2 1 1 1 1 1 2 3 4 5 5 3 5 8 9 9 9 9 9 10 9 10 10
7 7 7 6 6 6 5 5 6 6 6 5 4 4 3 3 3 2 2 1 1 1 0 0 1 2 2 2 3 3 1 2 4 7 9 9 9 8 9 9 12 11 11
Wind_Direction
191 195 193 191 191 191 195 198 201 203 199 199 198 199 200 200 200 204 216 196 205 205 211 211 221 255 253 251 247 252 256 261 267 270 256 207 272 297 318 284 261 245 183
188 192 193 188 188 190 192 194 196 197 198 197 197 200 202 200 199 200 206 197 203 207 210 213 222 220 229 264 267 261 261 274 273 281 284 278 250 284 298 287 287 276 287
181 186 184 185 186 186 186 187 191 190 193 194 194 196 196 192 191 193 192 189 194 200 204 207 218 223 233 251 262 267 265 256 268 278 279 310 294 341 314 294 299 325 302
176 180 181 187 186 181 181 182 184 182 181 182 181 180 176 172 170 169 167 170 172 176 178 177 190 223 266 276 262 275 280 281 274 272 282 295 308 342 323 320 317 337 321
169 169 169 172 166 166 165 167 167 163 163 159 157 157 156 158 157 154 154 154 146 133 114 97 78 67 53 36 12 351 313 293 293 287 299 314 358 354 349 329 323 318 322
160 155 151 150 147 148 146 144 145 143 140 135 138 137 134 125 103 109 129 133 127 122 115 106 98 87 82 73 64 53 38 24 11 6 27 35 27 9 353 336 332 321 319
155 150 142 138 136 132 134 129 128 126 122 118 114 112 107 94 95 99 101 109 106 104 102 97 92 86 90 94 86 79 63 52 43 37 56 40 28 13 348 343 354 340 337
153 146 140 135 131 127 123 117 113 108 104 99 96 97 97 93 97 101 102 102 96 90 88 90 91 80 65 74 84 75 65 52 45 49 53 41 32 7 345 331 322 299 271
142 138 136 133 130 126 121 117 112 108 101 96 94 95 97 92 89 101 108 109 100 89 79 73 84 87 58 57 85 84 81 83 80 75 70 69 58 34 4 341 342 322 322
138 134 128 126 124 121 117 112 108 104 100 95 88 85 89 88 81 90 104 109 104 99 90 80 68 70 59 50 79 83 79 68 64 82 88 93 57 59 27 4 348 333 328
120 118 114 114 116 115 111 109 108 105 101 96 91 83 80 80 78 73 76 109 114 108 99 87 76 68 64 57 60 67 55 20 58 53 54 44 36 26 18 18 3 342 336
114 111 109 109 109 110 111 110 111 111 107 102 98 90 81 76 73 72 67 69 85 99 96 94 92 84 76 66 66 52 349 308 36 34 30 24 16 12 11 1 354 339 324
110 107 106 103 100 104 110 114 113 112 111 110 107 103 99 95 87 79 77 74 75 88 90 94 103 113 114 92 76 15 344 30 33 29 24 19 9 4 337 331 326 313 286
111 108 105 102 99 94 92 97 103 107 111 113 113 112 112 111 111 113 111 107 107 107 110 115 115 98 103 107 121 73 50 39 14 20 15 7 354 346 343 346 337 331 321
112 109 106 101 98 89 77 63 75 67 70 101 112 116 119 111 85 71 95 103 104 106 127 132 125 113 93 79 71 57 41 38 22 15 4 357 352 349 348 348 338 327 328
114 111 109 109 106 104 100 81 57 65 62 60 62 82 84 90 95 85 81 82 86 121 140 105 94 85 76 69 61 58 46 32 15 4 3 359 352 347 343 342 339 336 332
112 113 113 114 114 114 114 112 105 81 66 62 64 76 92 101 100 100 103 106 124 245 110 92 86 77 67 57 46 38 35 33 6 357 1 356 347 342 340 338 337 337 333
112 112 115 117 119 119 120 121 120 118 112 97 79 79 93 101 106 116 142 160 132 116 87 86 82 74 62 45 36 28 20 16 7 356 355 351 345 338 338 337 335 343 331
115 117 115 115 117 117 119 119 117 116 114 116 118 109 109 119 123 149 220 117 88 86 83 78 70 63 53 43 31 17 9 7 6 343 352 349 342 337 339 336 331 337 318
111 113 118 120 119 119 119 119 120 122 123 124 125 129 148 157 134 128 116 84 84 81 76 73 65 54 47 34 21 7 358 3 358 346 351 343 340 336 335 330 331 330 326
119 119 122 123 122 122 122 124 126 127 125 123 114 93 39 119 107 104 99 88 77 74 67 62 66 62 50 32 18 1 354 1 360 350 345 340 337 335 330 327 328 328 329
124 129 127 120 120 122 124 127 126 123 123 121 122 126 126 122 107 104 97 91 84 77 70 49 45 50 35 21 11 359 353 359 357 349 340 334 329 327 328 329 332 331 328
127 125 122 120 120 125 134 130 130 131 131 131 132 134 137 115 108 102 96 91 83 75 69 55 37 41 36 22 12 2 355 358 349 339 329 325 325 326 326 328 328 326 328
129 130 129 132 137 143 136 136 138 135 134 134 133 131 128 123 114 106 103 97 91 83 66 49 40 42 26 359 349 10 26 3 335 324 325 317 316 321 323 323 323 327 325
133 133 135 139 142 141 141 142 139 137 137 137 137 137 134 135 132 130 121 111 107 81 57 25 18 26 6 354 357 21 47 5 320 319 311 304 312 317 320 320 322 322 323
135 136 138 140 142 144 147 149 149 148 147 146 144 144 147 150 143 138 140 138 136 110 330 336 1 341 321 324 25 44 89 285 286 290 295 299 308 317 324 317 319 318 321